Temperature
14 14 15 15 12 11 12 13 12 13 14 15 16 16 15 15 15 16 16 16 17 17 16 16 16 16 16 16 16 16 16 16 16 16 16 16 16 16 16 16 16 16 16 16 15 15 16 15 15
13 14 14 14 11 12 12 12 12 13 14 15 16 16 15 15 16 16 16 16 16 16 16 16 16 16 16 16 16 16 16 16 16 16 16 16 16 16 16 16 16 16 16 15 15 15 15 15 15
13 14 14 10 11 11 13 12 12 13 14 15 14 15 15 15 15 15 15 16 16 16 16 16 16 16 15 16 16 16 16 15 15 15 16 16 16 16 16 16 16 16 15 15 15 15 15 15 15
13 13 12 10 11 11 12 11 11 12 13 14 14 13 14 14 14 15 15 15 16 16 16 16 15 15 15 15 15 15 16 15 15 15 15 15 15 16 16 16 15 15 15 15 15 15 15 15 15
12 12 10 10 11 11 10 11 12 11 12 13 13 12 13 14 14 15 15 15 15 15 15 15 15 15 15 15 15 15 15 15 15 15 15 15 15 16 15 15 15 15 15 15 15 14 14 14 14
12 10 9 10 10 10 10 12 12 11 11 12 12 12 13 13 14 14 14 14 15 15 15 15 15 15 15 15 15 15 15 15 15 15 15 15 15 15 15 15 15 15 15 15 14 14 14 14 14
10 8 9 9 9 10 11 12 11 10 10 11 12 11 12 13 13 13 13 13 14 14 14 14 14 14 14 14 14 14 14 15 15 15 15 15 15 15 15 15 15 15 15 14 14 14 14 14 14
10 7 8 8 9 10 10 11 11 11 11 12 12 11 11 12 12 12 13 13 13 13 13 13 14 14 14 14 14 14 14 14 14 14 14 14 14 14 14 14 14 14 14 14 14 14 14 14 14
10 7 8 8 9 9 10 10 11 11 11 11 11 11 11 12 12 12 12 12 12 12 13 13 13 13 13 13 14 14 14 14 14 14 14 14 14 14 14 14 14 14 14 14 14 14 14 14 13
8 7 8 8 8 8 9 9 10 10 9 9 10 11 11 11 11 11 11 11 12 12 12 12 12 13 13 13 13 13 13 13 13 14 14 14 14 14 14 14 14 14 14 14 14 14 13 13 13
7 7 8 8 8 8 8 8 9 8 8 8 9 10 10 10 11 11 11 11 11 12 12 12 12 12 12 12 13 13 13 13 13 13 13 13 13 13 14 14 14 13 13 13 13 13 13 13 13
6 7 7 8 8 8 8 8 8 8 8 9 10 10 10 10 10 10 10 11 11 11 11 11 12 12 12 12 12 12 12 13 13 13 13 13 13 13 13 13 13 13 13 13 13 13 13 13 13
6 6 7 7 7 7 7 7 7 7 9 9 9 9 9 9 9 10 10 10 10 11 11 11 11 11 11 11 12 12 12 12 12 12 12 13 13 13 13 13 13 13 13 13 13 12 12 12 12
6 6 6 7 7 7 6 6 6 7 8 8 9 9 9 9 9 9 9 10 10 10 11 11 11 11 11 11 11 11 12 12 12 12 12 12 12 12 12 12 12 12 12 12 12 12 12 12 12
6 6 6 6 6 6 6 6 5 7 7 8 8 8 8 8 9 9 9 9 10 10 10 10 10 10 11 11 11 10 11 11 11 11 11 12 12 12 12 12 12 12 12 12 12 11 11 11 11
6 5 5 6 6 6 6 6 6 7 7 7 7 7 8 8 8 8 8 9 9 9 10 10 10 10 10 10 10 10 10 11 11 11 11 11 11 11 11 11 11 11 11 11 11 11 11 11 11
4 5 5 5 6 5 5 5 5 6 6 6 7 7 7 7 7 8 8 8 9 9 9 9 9 9 10 10 10 10 10 10 10 10 11 11 11 11 11 11 11 10 10 10 10 10 10 11 10
5 4 5 5 5 5 4 4 5 6 6 6 6 6 6 7 7 7 8 8 8 8 9 9 9 9 9 9 9 9 9 9 10 10 10 10 10 10 10 10 10 10 10 10 10 10 10 10 10
5 4 4 5 5 5 4 5 5 5 5 5 5 5 6 6 7 7 7 7 8 8 8 8 8 8 9 8 9 9 9 9 9 9 10 10 10 10 10 10 10 10 10 10 9 9 9 9 9
4 4 4 5 5 5 4 4 5 5 5 5 5 5 5 6 6 7 7 7 7 8 8 8 8 8 8 8 8 8 8 8 9 9 9 9 9 9 9 9 10 9 9 9 9 9 9 9 9
4 4 4 5 4 4 4 5 5 4 4 4 4 5 5 5 6 6 6 7 7 7 7 7 7 7 8 8 8 8 8 8 8 8 8 9 9 9 9 9 9 9 9 9 9 9 9 9 9
4 5 5 4 4 3 4 4 4 4 4 4 4 4 4 5 5 6 6 6 7 7 7 7 7 7 7 7 7 7 7 7 7 7 8 8 8 8 8 8 8 8 8 8 8 8 8 8 8
4 4 4 4 3 2 3 3 4 3 3 3 3 3 4 4 5 5 5 6 6 6 6 6 6 7 7 7 7 7 7 7 7 7 7 7 8 8 8 8 8 8 8 8 8 8 8 8 8
3 3 3 2 2 2 3 2 3 2 3 3 3 3 3 4 4 5 5 5 6 6 6 6 6 6 6 6 6 6 6 6 6 7 7 7 7 7 7 7 7 8 8 8 8 8 8 7 7
3 3 2 3 2 2 2 2 3 2 2 2 2 2 3 3 4 4 5 5 5 5 5 5 5 5 5 5 5 6 6 6 6 6 6 6 6 6 7 7 7 7 7 7 7 7 7 7 7
3 3 3 3 3 2 2 2 2 2 2 2 2 2 2 3 3 4 4 4 4 5 5 5 5 5 5 5 5 5 5 5 5 6 6 6 6 6 6 7 7 7 7 7 7 7 7 7 7
2 2 2 1 0 1 1 1 1 2 2 1 1 1 2 2 3 3 4 4 4 4 4 4 4 4 4 4 4 5 5 5 5 5 5 5 6 6 6 6 6 6 7 7 7 7 7 7 7
2 1 0 1 1 2 2 1 2 2 1 1 0 1 1 2 2 3 3 3 3 4 4 4 4 4 4 4 4 4 4 4 4 4 5 5 5 5 6 6 6 6 6 6 6 6 6 6 6
1 1 -0 -1 0 1 1 2 2 1 1 -0 -0 0 1 1 2 2 2 3 3 3 3 3 3 3 3 3 3 4 4 4 4 4 4 4 5 5 5 5 5 5 6 6 6 6 6 6 6
1 0 -0 0 -0 -1 -0 1 2 1 0 -0 -0 0 1 1 1 2 2 2 2 2 2 3 3 3 3 3 3 3 3 3 3 3 4 4 4 4 4 5 5 5 5 5 5 5 5 5 5
Wind_Speed
10 6 2 3 4 2 4 4 3 2 2 2 1 2 4 4 3 3 2 1 2 4 6 8 9 10 10 11 12 12 12 12 12 12 12 11 11 11 11 11 11 11 11 11 11 11 11 11 11
5 3 4 4 3 3 6 5 4 3 3 2 1 0 1 2 1 0 1 2 2 4 6 8 9 9 10 11 12 12 12 11 11 11 11 11 11 11 11 11 11 11 10 10 10 10 11 11 12
3 3 3 3 4 7 6 2 4 3 2 0 1 1 1 2 1 1 2 1 3 3 5 7 8 9 10 11 12 12 11 11 11 11 11 11 11 11 11 10 10 10 10 9 10 10 10 11 11
3 3 3 2 6 7 4 2 2 2 3 2 1 2 2 1 1 2 1 3 4 3 4 5 7 8 8 10 11 12 11 11 11 10 10 11 11 10 10 10 10 9 9 10 9 10 10 10 10
3 3 2 3 7 6 3 2 1 1 2 2 0 1 3 2 3 2 2 3 3 2 3 4 6 8 8 8 9 11 11 11 11 10 10 10 10 10 10 9 9 9 9 10 10 10 10 9 9
3 2 3 7 8 5 3 3 1 2 2 2 1 2 3 2 4 2 1 1 2 2 2 3 5 5 7 8 8 9 11 11 11 10 9 9 9 9 9 9 9 9 9 9 9 9 9 9 8
3 2 4 5 5 4 4 2 1 1 2 3 1 1 4 4 4 2 1 1 2 2 2 2 3 4 4 6 7 8 8 10 10 10 10 9 9 9 9 9 9 9 9 9 8 8 8 8 8
3 2 2 4 5 6 3 1 1 2 4 3 1 2 4 5 4 3 2 2 2 2 2 1 2 3 3 4 6 7 7 7 9 9 9 9 9 8 8 8 9 9 9 9 9 9 8 8 7
3 1 5 6 6 5 2 1 2 1 1 2 2 3 4 2 1 2 2 1 0 0 0 1 1 2 2 2 4 6 7 6 6 7 8 8 7 7 7 7 8 9 9 9 9 9 9 8 7
3 3 6 3 3 3 3 3 3 1 3 4 5 4 2 0 1 2 2 2 2 2 2 1 1 1 2 2 3 4 5 5 5 6 7 6 6 6 6 7 7 8 9 8 8 8 8 7 7
2 4 3 2 3 3 3 4 2 3 5 6 6 6 3 2 2 3 5 5 5 3 2 2 1 1 1 1 2 2 3 4 4 5 7 6 6 6 5 5 5 6 7 6 7 6 6 6 5
1 2 2 3 2 2 4 3 3 6 8 6 6 5 5 4 5 5 5 5 4 3 3 2 1 1 0 1 1 2 2 3 2 4 6 6 4 4 3 3 4 4 5 5 5 5 5 5 5
1 3 3 3 3 3 4 6 6 8 8 6 4 4 5 6 6 6 5 5 4 4 3 2 2 1 1 1 0 1 2 2 3 3 5 6 4 4 3 3 3 3 4 5 5 5 5 4 4
1 2 4 4 4 3 4 8 5 7 5 4 2 4 5 5 5 4 4 5 5 4 4 3 2 2 1 1 1 1 1 2 3 3 4 6 6 4 3 3 3 3 4 5 5 5 4 3 3
1 2 4 3 2 2 2 8 6 7 4 3 3 4 4 4 4 5 6 5 5 4 3 2 2 1 1 1 1 0 1 2 2 3 4 5 6 6 4 3 2 3 4 4 4 4 4 3 2
2 2 3 4 2 2 0 8 7 4 3 4 4 5 5 5 4 4 4 4 4 3 3 3 2 2 1 1 0 0 0 1 2 2 3 4 5 7 5 3 2 3 4 4 3 3 3 2 2
3 2 4 5 2 1 2 7 8 4 3 5 5 6 6 5 4 4 4 4 4 3 3 3 2 2 2 1 0 0 0 1 1 2 3 3 4 5 5 4 3 4 3 3 2 2 3 3 3
3 3 4 5 3 2 4 8 9 6 4 5 6 6 6 5 5 4 4 3 3 2 2 2 2 2 1 1 0 0 0 1 1 2 3 3 3 4 5 4 4 4 3 3 2 2 1 3 3
3 4 6 7 4 3 6 10 10 7 4 5 5 5 6 6 5 3 3 3 1 1 2 2 2 1 2 1 1 1 1 1 1 2 3 3 4 4 4 4 4 4 4 4 4 3 2 2 3
3 4 5 6 3 3 6 9 8 6 3 3 3 4 5 5 5 4 3 2 1 1 1 2 2 1 1 1 1 2 1 1 1 1 2 3 3 3 4 4 4 4 4 4 5 4 2 1 3
3 4 4 5 6 3 4 6 4 4 1 3 3 4 4 4 4 4 4 3 0 1 1 1 1 1 1 1 1 1 1 1 0 1 1 1 2 3 4 4 4 4 4 5 5 5 5 3 2
4 3 4 4 3 4 2 5 5 3 4 5 6 5 5 5 4 4 4 2 1 1 1 1 0 0 1 1 2 2 2 2 2 1 1 1 2 3 4 4 4 4 4 4 5 4 4 5 4
3 4 3 2 1 3 1 3 6 3 4 6 6 6 6 5 5 4 4 3 2 1 0 1 1 1 1 1 2 2 2 1 0 0 1 1 1 2 3 4 4 4 3 4 5 4 4 4 5
2 2 2 3 3 3 3 3 5 3 4 6 7 7 6 6 6 5 5 3 2 1 1 1 1 1 1 1 1 1 2 2 2 1 2 1 1 2 3 4 4 4 3 4 5 5 5 4 4
3 3 4 5 3 5 1 2 6 4 3 3 5 7 7 6 6 6 6 4 3 2 2 1 1 2 2 1 2 1 2 3 4 4 3 3 2 2 3 4 4 4 4 4 4 4 5 5 5
1 2 3 2 4 5 2 4 5 4 4 4 4 5 6 7 6 6 5 4 3 3 2 2 2 2 2 2 2 1 2 2 2 3 3 3 3 3 3 3 3 4 4 4 4 4 4 4 5
1 1 1 2 1 3 5 5 7 3 6 6 7 7 7 7 7 7 6 4 3 3 3 3 2 2 2 2 2 1 1 2 2 2 2 2 2 2 2 3 3 3 4 4 4 4 4 4 4
1 3 3 2 1 4 5 4 4 6 6 7 8 8 8 8 7 6 5 5 4 3 3 3 3 3 3 2 2 2 2 2 2 1 2 2 2 2 2 2 3 3 3 3 3 3 4 4 4
2 2 2 1 1 2 4 6 3 3 3 5 6 7 7 8 7 6 6 5 4 4 3 3 3 4 3 3 2 2 2 2 1 1 2 2 2 2 2 2 3 3 3 3 3 4 4 4 4
1 2 3 1 3 2 3 6 3 2 3 4 6 7 7 7 6 6 6 5 4 4 4 4 4 3 3 3 3 2 2 1 1 1 2 2 2 2 2 2 2 3 3 3 4 5 4 4 5
Wind_Direction
333 347 45 59 65 65 233 241 228 255 256 255 260 195 176 180 179 209 314 111 88 146 157 156 157 157 151 148 148 145 140 137 134 133 131 130 129 130 128 124 123 122 119 118 120 119 116 114 113
335 0 51 70 126 208 248 231 230 233 240 285 317 98 133 238 277 74 340 313 119 141 151 154 153 157 154 150 147 146 144 143 139 136 137 135 133 133 131 128 127 124 122 119 116 119 120 118 115
1 43 87 100 169 200 227 231 233 275 276 359 350 334 203 242 280 235 273 189 114 129 140 154 155 154 155 154 152 148 145 144 143 142 140 140 137 137 135 133 131 128 125 121 119 118 121 120 116
50 52 66 133 215 220 218 243 251 307 330 355 56 319 292 306 245 266 250 123 108 124 135 151 158 157 154 156 156 153 152 149 144 143 145 143 142 141 140 138 135 131 129 126 123 122 121 118 118
52 89 135 219 232 237 239 266 237 248 272 294 33 268 284 332 1 23 104 117 120 127 130 152 154 161 159 153 159 160 157 152 149 147 146 147 146 145 144 142 137 135 131 128 125 124 121 122 120
57 80 172 222 235 252 254 262 244 272 279 304 246 245 262 331 17 22 67 107 115 121 129 145 149 152 165 160 155 162 162 158 155 153 151 149 147 146 147 146 143 140 139 133 128 127 127 125 126
111 133 205 222 238 253 251 265 201 266 276 269 237 224 278 326 341 4 20 72 80 80 76 115 138 140 152 160 160 155 161 164 161 159 157 153 149 147 150 151 150 146 142 136 135 135 134 129 127
120 121 216 233 234 244 257 291 240 208 256 268 172 193 257 290 327 5 30 60 87 84 67 52 119 131 133 152 156 154 147 156 164 160 156 152 149 146 150 152 153 149 145 140 141 141 138 134 127
91 139 220 220 223 247 291 294 297 291 219 257 250 239 263 287 2 57 38 13 70 117 109 51 83 120 124 143 153 145 147 143 147 153 151 146 143 143 143 148 154 153 149 146 145 142 137 129 124
112 198 227 224 221 255 291 264 267 324 290 274 282 294 304 126 149 166 204 218 226 226 220 175 130 94 140 156 149 145 141 139 138 146 145 143 138 138 141 142 148 151 148 145 145 139 127 116 113
141 206 233 271 277 274 283 286 262 219 261 255 260 275 281 264 223 215 219 215 223 225 232 207 186 144 110 132 140 142 140 141 141 148 145 138 131 130 130 128 131 136 135 126 124 116 114 115 117
166 264 253 271 304 309 281 283 274 232 248 258 248 235 227 239 238 225 232 236 231 224 235 237 198 171 153 124 153 159 148 145 145 157 156 145 137 135 129 130 123 122 126 126 122 119 116 116 121
229 278 283 292 312 294 297 281 271 265 274 280 263 240 227 230 243 239 230 236 228 221 229 237 222 197 207 148 162 180 170 162 159 156 162 156 147 152 142 134 137 132 135 139 135 132 130 127 123
237 263 293 298 293 288 287 288 273 278 297 285 258 245 243 241 245 252 239 234 233 231 230 221 220 232 207 192 203 227 175 165 156 165 170 164 157 154 146 144 143 142 148 149 146 149 145 140 134
245 311 322 312 298 301 318 301 265 279 310 280 260 257 261 264 258 250 245 235 233 235 233 213 212 227 226 216 198 179 201 169 162 167 163 165 159 156 153 152 150 151 149 145 140 138 134 138 137
22 16 314 304 306 294 153 275 284 304 314 281 270 268 269 270 265 269 269 256 241 233 224 215 213 199 217 240 226 213 242 189 165 166 156 161 162 158 151 154 163 155 144 142 159 164 158 156 159
21 311 274 295 291 280 205 260 291 317 300 288 286 278 276 283 286 285 281 259 235 212 204 200 189 182 202 218 248 217 271 257 188 171 156 161 162 161 154 160 166 158 152 155 174 184 174 170 167
269 269 271 277 295 278 249 262 289 302 291 285 293 291 286 276 276 280 288 276 241 202 187 178 161 171 164 146 130 142 4 295 200 172 164 160 163 168 161 167 169 166 168 173 164 181 162 171 169
241 245 269 273 281 280 259 268 282 290 291 293 302 301 292 281 288 292 290 285 269 189 160 160 160 165 133 155 190 210 234 259 202 183 168 167 164 172 179 176 168 172 185 185 176 173 153 178 161
245 263 274 292 304 285 280 278 275 278 269 280 302 309 300 311 320 319 312 299 231 172 175 180 184 176 167 204 217 225 218 222 208 196 175 170 166 173 189 183 182 182 181 181 184 171 166 222 186
273 237 256 283 314 313 315 295 270 291 284 336 337 324 319 314 306 296 295 275 258 179 191 202 206 181 192 207 193 108 72 54 210 174 178 194 186 189 197 184 184 190 188 194 194 183 180 194 222
281 269 262 284 315 300 3 288 274 299 312 333 331 330 320 322 324 306 300 289 266 255 252 258 231 151 188 184 193 176 176 218 243 232 213 211 197 198 195 186 183 196 199 197 203 195 195 187 207
253 303 294 282 225 304 271 238 287 343 317 313 315 321 321 321 323 312 307 276 269 265 27 335 345 330 272 247 216 192 208 227 208 197 190 214 212 206 207 191 189 198 205 207 200 197 198 201 204
286 347 23 50 75 295 249 205 285 303 292 311 320 323 321 325 331 326 328 338 348 357 33 41 347 293 290 285 258 203 206 203 184 216 212 237 247 232 220 209 200 205 208 214 204 200 199 206 206
35 45 11 356 358 263 248 225 258 285 300 308 317 323 324 332 337 336 340 342 353 355 341 341 322 299 301 293 277 239 226 217 208 211 213 218 234 247 233 219 213 211 208 210 202 200 203 205 204
336 112 144 243 268 293 304 253 267 291 322 337 336 326 338 342 341 336 331 329 331 333 330 323 304 292 293 293 282 252 239 234 239 236 227 226 232 240 236 221 215 215 208 209 203 204 208 206 206
89 99 161 152 289 286 282 292 300 314 345 355 356 353 346 340 339 335 336 336 328 328 326 315 309 306 306 298 293 269 261 251 246 249 242 243 247 242 237 227 220 214 209 208 208 212 210 204 208
85 132 83 99 284 288 295 282 282 311 324 337 345 342 334 337 338 338 340 340 330 327 332 337 333 329 322 307 303 308 285 273 267 255 252 255 256 247 238 238 232 231 221 210 211 217 214 206 212
45 65 89 122 185 219 286 279 258 269 300 314 318 321 325 329 331 335 340 341 338 339 340 336 337 339 337 329 321 313 302 288 290 280 275 266 263 250 247 239 236 238 232 222 217 226 213 209 211
173 163 143 173 261 228 253 275 310 314 313 317 316 319 325 326 328 336 341 343 348 344 341 339 334 329 320 323 324 312 303 298 291 291 289 285 278 267 258 252 254 254 243 226 220 231 221 216 215
Height
1492 1493 1495 1497 1501 1510 1509 1504 1501 1500 1499 1498 1497 1497 1497 1499 1501 1504 1498 1495 1495 1497 1498 1500 1502 1503 1505 1507 1509 1510 1512 1513 1514 1515 1516 1518 1519 1520 1520 1521 1522 1523 1524 1525 1526 1527 1527 1528 1529
1492 1494 1496 1496 1505 1513 1508 1501 1500 1498 1497 1496 1496 1496 1496 1496 1496 1496 1494 1494 1495 1496 1498 1499 1501 1503 1504 1506 1508 1509 1511 1512 1514 1515 1516 1517 1518 1519 1520 1521 1522 1523 1524 1525 1525 1526 1527 1528 1529
1492 1493 1496 1498 1505 1507 1502 1498 1498 1496 1496 1496 1495 1495 1496 1495 1495 1494 1494 1494 1495 1496 1498 1499 1501 1502 1504 1505 1507 1509 1510 1512 1513 1514 1516 1517 1518 1519 1520 1521 1521 1522 1523 1524 1525 1526 1527 1528 1529
1492 1494 1496 1501 1501 1499 1498 1497 1496 1496 1495 1495 1495 1495 1495 1496 1495 1495 1494 1494 1494 1495 1497 1499 1500 1502 1503 1505 1506 1508 1509 1511 1512 1513 1515 1516 1517 1518 1519 1520 1521 1522 1523 1524 1525 1526 1527 1527 1528
1492 1493 1498 1502 1499 1496 1496 1495 1495 1495 1495 1495 1495 1494 1493 1494 1494 1493 1493 1493 1493 1494 1496 1498 1499 1501 1502 1504 1505 1507 1508 1510 1511 1512 1514 1515 1516 1517 1518 1519 1520 1521 1522 1523 1524 1525 1526 1527 1528
1492 1493 1501 1501 1497 1495 1495 1494 1494 1495 1495 1494 1494 1493 1492 1493 1492 1492 1492 1493 1493 1494 1495 1496 1498 1499 1501 1503 1504 1506 1507 1508 1510 1511 1512 1514 1515 1516 1517 1518 1519 1520 1521 1522 1523 1524 1525 1526 1527
1493 1497 1499 1498 1498 1496 1494 1493 1494 1494 1494 1494 1494 1493 1491 1491 1491 1491 1491 1492 1492 1493 1493 1495 1496 1498 1499 1501 1503 1504 1506 1507 1508 1510 1511 1512 1513 1514 1516 1517 1518 1519 1520 1521 1522 1523 1524 1525 1526
1492 1497 1499 1500 1498 1495 1492 1492 1493 1493 1493 1494 1494 1493 1490 1490 1490 1490 1490 1491 1491 1492 1492 1493 1495 1496 1497 1499 1501 1502 1504 1505 1507 1508 1509 1511 1512 1513 1514 1515 1516 1517 1518 1519 1520 1521 1523 1524 1525
1493 1499 1499 1497 1496 1493 1492 1492 1492 1492 1492 1492 1491 1491 1490 1489 1488 1488 1488 1488 1489 1490 1490 1491 1493 1494 1495 1497 1499 1500 1502 1503 1505 1507 1508 1509 1510 1511 1512 1513 1514 1515 1517 1518 1519 1520 1521 1522 1523
1493 1498 1495 1493 1493 1492 1492 1492 1491 1491 1490 1489 1488 1488 1488 1487 1486 1486 1485 1485 1486 1487 1488 1489 1490 1492 1493 1495 1496 1498 1499 1501 1502 1504 1506 1507 1508 1509 1510 1511 1512 1513 1514 1516 1517 1518 1519 1521 1522
1492 1494 1492 1492 1492 1491 1491 1491 1490 1490 1489 1487 1485 1484 1484 1484 1484 1483 1483 1483 1484 1484 1485 1487 1488 1489 1491 1492 1493 1495 1497 1498 1499 1500 1502 1504 1505 1507 1508 1509 1510 1511 1512 1513 1515 1516 1517 1518 1520
1493 1492 1491 1491 1491 1491 1490 1490 1489 1487 1485 1484 1484 1483 1482 1481 1480 1480 1480 1481 1482 1483 1483 1484 1485 1487 1488 1489 1491 1492 1493 1494 1495 1497 1498 1500 1502 1504 1505 1506 1507 1508 1509 1511 1512 1513 1515 1516 1517
1492 1491 1490 1490 1490 1490 1489 1488 1488 1484 1482 1481 1481 1480 1479 1479 1478 1478 1479 1479 1480 1480 1480 1481 1483 1484 1486 1487 1488 1489 1490 1491 1493 1494 1495 1497 1499 1500 1502 1503 1504 1505 1507 1508 1510 1511 1512 1514 1515
1491 1491 1490 1489 1489 1488 1488 1486 1486 1480 1480 1478 1477 1477 1476 1476 1476 1475 1476 1476 1477 1477 1478 1479 1480 1482 1483 1484 1485 1485 1487 1488 1490 1491 1492 1494 1496 1497 1498 1500 1501 1503 1504 1506 1507 1508 1509 1511 1512
1490 1491 1489 1488 1488 1487 1488 1485 1482 1479 1478 1476 1475 1474 1474 1473 1473 1472 1473 1473 1473 1474 1475 1476 1477 1478 1480 1481 1482 1483 1484 1485 1486 1487 1489 1490 1492 1494 1496 1497 1498 1500 1501 1503 1504 1505 1506 1508 1509
1491 1492 1493 1488 1487 1487 1491 1486 1478 1477 1476 1473 1472 1472 1471 1470 1470 1470 1470 1470 1470 1471 1472 1473 1475 1476 1477 1479 1480 1480 1481 1482 1483 1484 1485 1487 1489 1491 1493 1494 1496 1497 1498 1500 1501 1502 1503 1504 1506
1495 1497 1494 1490 1486 1486 1488 1484 1477 1475 1474 1472 1470 1469 1468 1467 1467 1467 1467 1467 1467 1468 1469 1471 1472 1473 1474 1476 1477 1478 1479 1479 1480 1481 1482 1484 1486 1488 1489 1491 1492 1494 1495 1496 1498 1498 1499 1501 1503
1496 1497 1494 1491 1486 1486 1486 1482 1476 1474 1473 1470 1468 1467 1465 1464 1464 1464 1465 1465 1465 1466 1467 1468 1469 1470 1471 1473 1473 1474 1475 1476 1477 1478 1479 1481 1483 1484 1486 1488 1489 1491 1492 1493 1495 1496 1496 1498 1500
1494 1495 1494 1489 1485 1485 1482 1479 1474 1472 1471 1468 1466 1465 1463 1462 1462 1463 1462 1462 1462 1463 1464 1466 1467 1468 1469 1469 1470 1470 1471 1472 1473 1474 1476 1478 1480 1481 1483 1484 1485 1487 1488 1489 1491 1493 1493 1494 1496
1493 1493 1492 1487 1484 1483 1481 1476 1471 1469 1468 1467 1465 1464 1462 1460 1459 1459 1459 1459 1460 1460 1462 1463 1465 1465 1466 1467 1468 1469 1469 1469 1470 1471 1472 1474 1476 1478 1479 1480 1481 1483 1485 1486 1488 1489 1489 1492 1493
1491 1492 1490 1488 1485 1483 1483 1475 1470 1467 1466 1465 1464 1463 1462 1460 1458 1458 1458 1457 1457 1458 1460 1461 1462 1463 1465 1466 1466 1466 1466 1466 1467 1468 1469 1471 1473 1475 1476 1477 1478 1480 1481 1482 1483 1485 1486 1488 1489
1491 1488 1488 1487 1489 1489 1487 1484 1470 1467 1466 1464 1463 1462 1461 1459 1457 1457 1456 1456 1456 1457 1458 1460 1460 1462 1463 1464 1464 1462 1462 1463 1464 1465 1466 1468 1470 1472 1473 1474 1475 1476 1477 1479 1480 1481 1483 1484 1485
1490 1488 1488 1488 1490 1492 1489 1490 1474 1469 1467 1464 1463 1461 1460 1458 1457 1456 1455 1455 1455 1456 1456 1457 1458 1459 1460 1461 1461 1460 1461 1462 1462 1463 1463 1465 1466 1468 1469 1470 1472 1473 1474 1475 1476 1477 1479 1480 1482
1489 1489 1489 1492 1494 1494 1487 1489 1478 1473 1469 1465 1462 1461 1459 1457 1456 1455 1454 1454 1454 1454 1455 1456 1456 1457 1457 1458 1458 1458 1458 1459 1459 1459 1460 1461 1462 1464 1465 1467 1468 1469 1470 1471 1471 1473 1474 1476 1477
1492 1494 1498 1496 1499 1493 1487 1486 1478 1470 1467 1466 1464 1461 1459 1458 1456 1455 1454 1453 1452 1452 1453 1453 1454 1454 1455 1455 1455 1455 1455 1456 1457 1457 1457 1458 1459 1460 1461 1463 1464 1465 1466 1467 1467 1468 1470 1471 1473
1495 1495 1500 1501 1499 1493 1487 1484 1474 1468 1466 1465 1464 1462 1460 1457 1456 1455 1454 1453 1452 1451 1451 1451 1451 1451 1452 1452 1452 1452 1453 1454 1454 1454 1454 1455 1456 1457 1458 1459 1460 1461 1462 1463 1463 1465 1466 1467 1468
1496 1499 1499 1504 1507 1503 1491 1484 1473 1466 1465 1463 1463 1461 1459 1458 1456 1454 1453 1452 1451 1450 1450 1450 1450 1450 1450 1450 1450 1450 1450 1451 1451 1451 1451 1452 1452 1453 1454 1455 1456 1457 1458 1459 1460 1460 1462 1463 1464
1497 1499 1504 1506 1504 1498 1490 1486 1478 1470 1467 1465 1463 1461 1459 1457 1455 1453 1452 1451 1450 1449 1449 1449 1449 1448 1448 1448 1448 1448 1448 1448 1448 1448 1448 1448 1449 1450 1450 1451 1452 1453 1453 1454 1456 1457 1458 1459 1460
1500 1502 1504 1509 1507 1503 1497 1483 1473 1471 1469 1467 1465 1462 1459 1456 1454 1452 1451 1450 1449 1449 1448 1448 1447 1446 1446 1446 1446 1445 1445 1445 1445 1445 1445 1446 1446 1447 1447 1447 1449 1449 1449 1450 1451 1453 1454 1454 1455
1500 1502 1505 1506 1507 1509 1503 1487 1471 1470 1468 1467 1465 1462 1459 1456 1454 1452 1450 1449 1448 1448 1447 1446 1446 1445 1444 1444 1444 1444 1443 1443 1443 1443 1443 1443 1443 1444 1444 1444 1445 1445 1446 1446 1447 1448 1449 1450 1451